User: anonymous
Location: Terra Rouge Observatory
(46.0000°N, 62.7500°W)
Time: 20:16:42
(UTC-03:00)
Language:

NOSS 3-1 (A) - Orbit

View from above orbital plane
View from above orbital plane
View from above satellite
View from above satellite

Ground track
Ground track

The orbit data is extracted from the following two-line orbital elements,

1 26905U 01040A   14210.33177565 0.00000000  00000-0  00000-0 0    05
2 26905  63.4260 202.1759 0281000 357.3446   2.6553 13.40693025    08
Epoch (UTC): 29 July 2014 07:57:45
Eccentricity: 0.0281000
inclination: 63.4260°
perigee height: 896 km
apogee height: 1317 km
right ascension of ascending node: 202.1759°
argument of perigee: 357.3446°
revolutions per day: 13.40693025
mean anomaly at epoch: 2.6553°
orbit number at epoch: 0

The dashed part of the orbit path shows where the satellite is in the earth's shadow,  

DLR